Torna al catalogo

FLOCK 4H 24

AttivoScienzaSSO
NORAD 66727·PAYLOAD·🇺🇸 United States

Lanciato Nov 28, 2025 da Vandenberg Space Force Base

Loading…

Prossimi Passaggi (prossime 24 ore)

TLE

AggiornatoSource: CelesTrak SupGP

Epoca: Sep 14, 2026, 06:45 UTC

1 66727C 25276BP  26257.28133102  .00006592  00000+0  29925-3 0  2570
2 66727  97.4164 329.4904 0005470  72.8259  25.1687 15.20850984    13

Traccia FLOCK 4H 24 in tempo reale con AllMySat

Download on the App Store